Location: Czekanka
(50.4925°N, 19.2643°E)
Time: 07:28:11
(UTC+00:00)

SL-16 R/B - Pass Details

Date: 22 September 2024
Orbit: 842 x 846 km, 71.0° (Epoch: 05 October)

Event Time Altitude Azimuth Distance (km) Brightness Sun altitude
Rises 20:05:39 0° 259° (W) 3,402 5.8 -30.5°
Reaches altitude 10° 20:08:45 10° 276° (W) 2,469 5.2 -30.8°
Maximum altitude 20:12:55 21° 324° (NW) 1,836 4.6 -31.3°
Drops below altitude 10° 20:17:06 10° 11° (NNE) 2,475 5.0 -31.7°
Sets 20:20:14 0° 28° (NNE) 3,412 5.6 -32.0°
